Time,TemperatureF,DewpointF,PressureIn,WindDirection,WindDirectionDegrees,WindSpeedMPH,WindSpeedGustMPH,Humidity,HourlyPrecipIn,Conditions,Clouds,dailyrainin,SoftwareType,DateUTC
2013-02-10 00:00:00,36.7,27.0,30.36,NNE,31,0.0,1.0,69,0.00,,,0.00,weatherlink.com 1.10,2013-02-10 05:00:00,
2013-02-10 00:15:00,34.9,26.0,30.36,NNE,27,0.0,1.0,71,0.00,,,0.00,weatherlink.com 1.10,2013-02-10 05:15:00,
2013-02-10 00:30:00,31.9,25.0,30.36,NNE,27,0.0,0.0,76,0.00,,,0.00,weatherlink.com 1.10,2013-02-10 05:30:00,
2013-02-10 00:46:00,36.2,27.0,30.37,NE,39,0.0,1.0,70,0.00,,,0.00,weatherlink.com 1.10,2013-02-10 05:46:00,
2013-02-10 01:01:00,33.6,25.0,30.36,NE,39,0.0,0.0,70,0.00,,,0.00,weatherlink.com 1.10,2013-02-10 06:01:00,
2013-02-10 01:16:00,36.1,28.0,30.37,NE,36,0.0,1.0,71,0.00,,,0.00,weatherlink.com 1.10,2013-02-10 06:16:00,
2013-02-10 01:31:00,37.3,28.0,30.38,NE,36,0.0,1.0,69,0.00,,,0.00,weatherlink.com 1.10,2013-02-10 06:31:00,
2013-02-10 01:46:00,35.5,25.0,30.38,NNE,33,0.0,0.0,65,0.00,,,0.00,weatherlink.com 1.10,2013-02-10 06:46:00,
2013-02-10 02:01:00,34.2,27.0,30.39,NE,34,0.0,1.0,76,0.00,,,0.00,weatherlink.com 1.10,2013-02-10 07:01:00,
2013-02-10 02:16:00,36.1,27.0,30.39,NNE,20,0.0,1.0,69,0.00,,,0.00,weatherlink.com 1.10,2013-02-10 07:16:00,
2013-02-10 02:31:00,31.3,24.0,30.39,NNE,20,0.0,0.0,75,0.00,,,0.00,weatherlink.com 1.10,2013-02-10 07:31:00,
2013-02-10 02:46:00,34.9,27.0,30.39,NE,34,0.0,0.0,72,0.00,,,0.00,weatherlink.com 1.10,2013-02-10 07:46:00,
2013-02-10 03:01:00,34.4,27.0,30.39,NE,41,0.0,0.0,74,0.00,,,0.00,weatherlink.com 1.10,2013-02-10 08:01:00,
2013-02-10 03:16:00,34.0,26.0,30.39,NNE,18,0.0,0.0,72,0.00,,,0.00,weatherlink.com 1.10,2013-02-10 08:16:00,
2013-02-10 03:31:00,31.8,28.0,30.39,NNE,15,0.0,0.0,84,0.00,,,0.00,weatherlink.com 1.10,2013-02-10 08:31:00,
2013-02-10 03:46:00,31.9,27.0,30.39,NNE,15,0.0,1.0,82,0.00,,,0.00,weatherlink.com 1.10,2013-02-10 08:46:00,
2013-02-10 04:01:00,34.3,27.0,30.39,NNE,29,0.0,1.0,76,0.00,,,0.00,weatherlink.com 1.10,2013-02-10 09:01:00,
2013-02-10 04:16:00,31.8,24.0,30.39,NNE,28,0.0,0.0,74,0.00,,,0.00,weatherlink.com 1.10,2013-02-10 09:16:00,
2013-02-10 04:31:00,33.7,28.0,30.39,NNE,29,0.0,0.0,79,0.00,,,0.00,weatherlink.com 1.10,2013-02-10 09:31:00,
2013-02-10 04:46:00,36.9,26.0,30.39,NNE,30,0.0,1.0,66,0.00,,,0.00,weatherlink.com 1.10,2013-02-10 09:46:00,
2013-02-10 05:01:00,33.7,25.0,30.40,NNE,30,0.0,0.0,71,0.00,,,0.00,weatherlink.com 1.10,2013-02-10 10:01:00,
2013-02-10 05:16:00,35.7,27.0,30.39,NNE,30,0.0,0.0,70,0.00,,,0.00,weatherlink.com 1.10,2013-02-10 10:16:00,
2013-02-10 05:31:00,34.3,29.0,30.39,North,356,0.0,1.0,81,0.00,,,0.00,weatherlink.com 1.10,2013-02-10 10:31:00,
2013-02-10 05:46:00,33.9,27.0,30.40,North,359,0.0,1.0,77,0.00,,,0.00,weatherlink.com 1.10,2013-02-10 10:46:00,
2013-02-10 06:01:00,34.8,26.0,30.41,NNE,16,0.0,1.0,70,0.00,,,0.00,weatherlink.com 1.10,2013-02-10 11:01:00,
2013-02-10 06:16:00,32.4,26.0,30.42,NNE,16,0.0,0.0,76,0.00,,,0.00,weatherlink.com 1.10,2013-02-10 11:16:00,
2013-02-10 06:31:00,34.7,29.0,30.42,NNE,33,0.0,0.0,80,0.00,,,0.00,weatherlink.com 1.10,2013-02-10 11:31:00,
2013-02-10 06:46:00,33.0,28.0,30.43,NNE,33,0.0,0.0,81,0.00,,,0.00,weatherlink.com 1.10,2013-02-10 11:46:00,
2013-02-10 07:01:00,33.3,27.0,30.42,NE,34,0.0,1.0,78,0.00,,,0.00,weatherlink.com 1.10,2013-02-10 12:01:00,
2013-02-10 07:16:00,32.8,26.0,30.44,NE,34,0.0,0.0,76,0.00,,,0.00,weatherlink.com 1.10,2013-02-10 12:16:00,
2013-02-10 07:31:00,32.4,26.0,30.45,NE,34,0.0,0.0,76,0.00,,,0.00,weatherlink.com 1.10,2013-02-10 12:31:00,
2013-02-10 07:46:00,31.6,26.0,30.46,NE,34,0.0,0.0,79,0.00,,,0.00,weatherlink.com 1.10,2013-02-10 12:46:00,
2013-02-10 08:01:00,34.7,30.0,30.46,ENE,67,0.0,0.0,82,0.00,,,0.00,weatherlink.com 1.10,2013-02-10 13:01:00,
2013-02-10 08:16:00,33.9,28.0,30.47,ENE,67,0.0,0.0,80,0.00,,,0.00,weatherlink.com 1.10,2013-02-10 13:16:00,
2013-02-10 08:31:00,34.7,26.0,30.47,NNE,17,0.0,0.0,70,0.00,,,0.00,weatherlink.com 1.10,2013-02-10 13:31:00,
2013-02-10 08:46:00,37.0,28.0,30.47,North,6,0.0,1.0,70,0.00,,,0.00,weatherlink.com 1.10,2013-02-10 13:46:00,
2013-02-10 09:01:00,38.0,22.0,30.46,ENE,75,1.0,4.0,53,0.00,,,0.00,weatherlink.com 1.10,2013-02-10 14:01:00,
2013-02-10 09:16:00,37.5,22.0,30.46,SSE,153,0.0,5.0,54,0.00,,,0.00,weatherlink.com 1.10,2013-02-10 14:16:00,
2013-02-10 09:31:00,38.4,23.0,30.47,SSE,158,1.0,3.0,54,0.00,,,0.00,weatherlink.com 1.10,2013-02-10 14:31:00,
2013-02-10 09:46:00,38.5,23.0,30.47,SE,129,2.0,3.0,54,0.00,,,0.00,weatherlink.com 1.10,2013-02-10 14:46:00,
2013-02-10 10:01:00,40.6,24.0,30.48,ESE,117,0.0,1.0,51,0.00,,,0.00,weatherlink.com 1.10,2013-02-10 15:01:00,
2013-02-10 10:16:00,41.2,22.0,30.48,ENE,73,1.0,5.0,47,0.00,,,0.00,weatherlink.com 1.10,2013-02-10 15:16:00,
2013-02-10 10:32:00,42.0,22.0,30.48,ENE,67,1.0,3.0,45,0.00,,,0.00,weatherlink.com 1.10,2013-02-10 15:32:00,
2013-02-10 10:47:00,42.6,22.0,30.46,ENE,67,3.0,7.0,44,0.00,,,0.00,weatherlink.com 1.10,2013-02-10 15:47:00,
2013-02-10 11:02:00,45.5,22.0,30.45,SW,233,2.0,3.0,39,0.00,,,0.00,weatherlink.com 1.10,2013-02-10 16:02:00,
2013-02-10 11:17:00,46.7,21.0,30.47,WSW,257,3.0,4.0,37,0.00,,,0.00,weatherlink.com 1.10,2013-02-10 16:17:00,
2013-02-10 11:32:00,47.6,22.0,30.45,SE,139,3.0,5.0,37,0.00,,,0.00,weatherlink.com 1.10,2013-02-10 16:32:00,
2013-02-10 11:47:00,47.5,22.0,30.45,SE,145,3.0,5.0,36,0.00,,,0.00,weatherlink.com 1.10,2013-02-10 16:47:00,
2013-02-10 12:02:00,48.6,21.0,30.44,SW,217,2.0,5.0,34,0.00,,,0.00,weatherlink.com 1.10,2013-02-10 17:02:00,
2013-02-10 12:17:00,49.3,23.0,30.43,SE,135,0.0,8.0,35,0.00,,,0.00,weatherlink.com 1.10,2013-02-10 17:17:00,
2013-02-10 12:32:00,50.3,20.0,30.41,ESE,106,0.0,7.0,30,0.00,,,0.00,weatherlink.com 1.10,2013-02-10 17:32:00,
2013-02-10 12:47:00,50.6,21.0,30.39,SW,222,2.0,5.0,31,0.00,,,0.00,weatherlink.com 1.10,2013-02-10 17:47:00,
2013-02-10 13:02:00,51.2,21.0,30.38,SW,232,1.0,7.0,30,0.00,,,0.00,weatherlink.com 1.10,2013-02-10 18:02:00,
2013-02-10 13:17:00,51.7,21.0,30.38,SE,141,2.0,4.0,30,0.00,,,0.00,weatherlink.com 1.10,2013-02-10 18:17:00,
2013-02-10 13:32:00,51.4,20.0,30.38,West,281,0.0,4.0,29,0.00,,,0.00,weatherlink.com 1.10,2013-02-10 18:32:00,
2013-02-10 13:47:00,51.5,19.0,30.38,SSW,211,2.0,4.0,28,0.00,,,0.00,weatherlink.com 1.10,2013-02-10 18:47:00,
2013-02-10 14:02:00,51.4,20.0,30.36,SE,128,1.0,5.0,29,0.00,,,0.00,weatherlink.com 1.10,2013-02-10 19:02:00,
2013-02-10 14:17:00,51.9,20.0,30.34,SW,231,4.0,7.0,29,0.00,,,0.00,weatherlink.com 1.10,2013-02-10 19:17:00,
2013-02-10 14:32:00,52.4,22.0,30.32,SE,132,6.0,9.0,30,0.00,,,0.00,weatherlink.com 1.10,2013-02-10 19:32:00,
2013-02-10 14:47:00,53.2,21.0,30.31,SSE,156,5.0,6.0,28,0.00,,,0.00,weatherlink.com 1.10,2013-02-10 19:47:00,
2013-02-10 15:02:00,53.5,17.0,30.32,SW,222,3.0,6.0,24,0.00,,,0.00,weatherlink.com 1.10,2013-02-10 20:02:00,
2013-02-10 15:17:00,54.0,20.0,30.32,SSW,210,2.0,5.0,26,0.00,,,0.00,weatherlink.com 1.10,2013-02-10 20:17:00,
2013-02-10 15:32:00,54.1,19.0,30.32,WSW,240,3.0,6.0,25,0.00,,,0.00,weatherlink.com 1.10,2013-02-10 20:32:00,
2013-02-10 15:47:00,53.6,19.0,30.32,SW,214,1.0,5.0,26,0.00,,,0.00,weatherlink.com 1.10,2013-02-10 20:47:00,
2013-02-10 16:02:00,53.6,19.0,30.32,SSW,193,3.0,10.0,26,0.00,,,0.00,weatherlink.com 1.10,2013-02-10 21:02:00,
2013-02-10 16:17:00,53.4,19.0,30.30,WSW,248,1.0,5.0,26,0.00,,,0.00,weatherlink.com 1.10,2013-02-10 21:17:00,
2013-02-10 16:32:00,53.0,20.0,30.30,WSW,238,0.0,5.0,27,0.00,,,0.00,weatherlink.com 1.10,2013-02-10 21:32:00,
2013-02-10 16:47:00,52.7,19.0,30.30,SW,226,2.0,7.0,27,0.00,,,0.00,weatherlink.com 1.10,2013-02-10 21:47:00,
2013-02-10 17:02:00,52.3,20.0,30.29,SSE,158,3.0,5.0,28,0.00,,,0.00,weatherlink.com 1.10,2013-02-10 22:02:00,
2013-02-10 17:17:00,52.0,19.0,30.27,SSE,149,2.0,5.0,27,0.00,,,0.00,weatherlink.com 1.10,2013-02-10 22:17:00,
2013-02-10 17:32:00,51.8,19.0,30.28,SSE,167,1.0,3.0,27,0.00,,,0.00,weatherlink.com 1.10,2013-02-10 22:32:00,
2013-02-10 17:47:00,51.5,19.0,30.29,SW,231,0.0,5.0,28,0.00,,,0.00,weatherlink.com 1.10,2013-02-10 22:47:00,
2013-02-10 18:02:00,51.0,21.0,30.28,SW,225,0.0,1.0,31,0.00,,,0.00,weatherlink.com 1.10,2013-02-10 23:02:00,
2013-02-10 18:17:00,50.6,19.0,30.29,ESE,113,0.0,2.0,29,0.00,,,0.00,weatherlink.com 1.10,2013-02-10 23:17:00,
2013-02-10 18:33:00,52.1,21.0,30.29,North,5,0.0,1.0,30,0.00,,,0.00,weatherlink.com 1.10,2013-02-10 23:33:00,
2013-02-10 18:48:00,52.3,21.0,30.29,North,6,0.0,0.0,29,0.00,,,0.00,weatherlink.com 1.10,2013-02-10 23:48:00,
2013-02-10 19:03:00,50.9,20.0,30.29,North,6,0.0,0.0,30,0.00,,,0.00,weatherlink.com 1.10,2013-02-11 00:03:00,
2013-02-10 19:18:00,51.7,23.0,30.29,North,6,0.0,0.0,33,0.00,,,0.00,weatherlink.com 1.10,2013-02-11 00:18:00,
2013-02-10 19:33:00,52.3,23.0,30.29,North,6,0.0,0.0,32,0.00,,,0.00,weatherlink.com 1.10,2013-02-11 00:33:00,
2013-02-10 19:48:00,51.6,23.0,30.29,North,6,0.0,0.0,33,0.00,,,0.00,weatherlink.com 1.10,2013-02-11 00:48:00,
2013-02-10 20:03:00,50.7,26.0,30.29,NE,46,0.0,1.0,38,0.00,,,0.00,weatherlink.com 1.10,2013-02-11 01:03:00,
2013-02-10 20:18:00,50.6,26.0,30.29,NE,46,0.0,0.0,38,0.00,,,0.00,weatherlink.com 1.10,2013-02-11 01:18:00,
2013-02-10 20:33:00,49.9,24.0,30.30,NE,46,0.0,0.0,37,0.00,,,0.00,weatherlink.com 1.10,2013-02-11 01:33:00,
2013-02-10 20:48:00,49.9,35.0,30.29,NNE,33,0.0,1.0,56,0.01,,,0.01,weatherlink.com 1.10,2013-02-11 01:48:00,
2013-02-10 21:03:00,48.6,38.0,30.29,NNE,32,0.0,0.0,68,0.04,,,0.04,weatherlink.com 1.10,2013-02-11 02:03:00,
2013-02-10 21:18:00,45.4,40.0,30.29,NNE,32,0.0,0.0,82,0.08,,,0.08,weatherlink.com 1.10,2013-02-11 02:18:00,
2013-02-10 21:33:00,44.8,39.0,30.29,North,355,0.0,0.0,80,0.10,,,0.10,weatherlink.com 1.10,2013-02-11 02:33:00,
2013-02-10 21:48:00,44.5,40.0,30.27,North,349,0.0,1.0,85,0.11,,,0.12,weatherlink.com 1.10,2013-02-11 02:48:00,
2013-02-10 22:03:00,43.4,39.0,30.26,ESE,113,0.0,1.0,83,0.09,,,0.13,weatherlink.com 1.10,2013-02-11 03:03:00,
2013-02-10 22:18:00,42.6,38.0,30.25,ENE,75,0.0,1.0,85,0.05,,,0.13,weatherlink.com 1.10,2013-02-11 03:18:00,
2013-02-10 22:33:00,43.4,39.0,30.23,ENE,68,0.0,1.0,85,0.03,,,0.13,weatherlink.com 1.10,2013-02-11 03:33:00,
2013-02-10 22:49:00,42.9,38.0,30.21,SE,129,0.0,1.0,83,0.01,,,0.13,weatherlink.com 1.10,2013-02-11 03:49:00,
2013-02-10 23:04:00,42.8,39.0,30.20,East,98,0.0,2.0,86,0.00,,,0.13,weatherlink.com 1.10,2013-02-11 04:04:00,
2013-02-10 23:19:00,44.0,39.0,30.20,SE,141,0.0,4.0,82,0.00,,,0.13,weatherlink.com 1.10,2013-02-11 04:19:00,
2013-02-10 23:34:00,43.4,39.0,30.20,South,172,0.0,1.0,85,0.00,,,0.13,weatherlink.com 1.10,2013-02-11 04:34:00,
2013-02-10 23:49:00,43.5,40.0,30.19,SSW,210,0.0,1.0,87,0.00,,,0.13,weatherlink.com 1.10,2013-02-11 04:49:00,